Time,TemperatureF,DewpointF,PressureIn,WindDirection,WindDirectionDegrees,WindSpeedMPH,WindSpeedGustMPH,Humidity,HourlyPrecipIn,Conditions,Clouds,dailyrainin,SolarRadiationWatts/m^2,SoftwareType,DateUTC
2013-06-02 00:00:00,81.2,71.3,29.57,SSE,159,0.0,5.0,72,0.00,,SKC,0.00,0.00,VWS V14.01,2013-06-02 05:00:00,
2013-06-02 00:01:00,81.2,71.3,29.57,SSE,160,0.0,5.0,72,0.00,,---,0.00,0.00,VWS V14.00,2013-06-02 05:01:00,
2013-06-02 00:06:00,81.1,71.2,29.58,SSE,159,0.0,4.0,72,0.00,,---,0.00,0.00,VWS V14.00,2013-06-02 05:06:00,
2013-06-02 00:10:00,80.9,71.4,29.58,SSE,160,1.0,4.0,73,0.00,,SKC,0.00,0.00,VWS V14.01,2013-06-02 05:10:00,
2013-06-02 00:11:00,80.9,71.4,29.58,SSE,160,2.0,4.0,73,0.00,,---,0.00,0.00,VWS V14.00,2013-06-02 05:11:00,
2013-06-02 00:16:00,80.8,71.3,29.58,SSE,159,0.0,5.0,73,0.00,,---,0.00,0.00,VWS V14.00,2013-06-02 05:16:00,
2013-06-02 00:20:00,80.6,71.6,29.58,SSE,159,4.0,7.0,74,0.00,,SKC,0.00,0.00,VWS V14.01,2013-06-02 05:20:00,
2013-06-02 00:21:00,80.6,71.2,29.58,SSE,160,1.0,5.0,73,0.00,,---,0.00,0.00,VWS V14.00,2013-06-02 05:21:00,
2013-06-02 00:26:00,80.4,71.4,29.56,SSE,160,4.0,6.0,74,0.00,,---,0.00,0.00,VWS V14.00,2013-06-02 05:26:00,
2013-06-02 00:30:00,80.2,71.2,29.56,SSE,159,0.0,7.0,74,0.00,,SKC,0.00,0.00,VWS V14.01,2013-06-02 05:30:00,
2013-06-02 00:31:00,80.2,71.2,29.56,SSE,159,0.0,7.0,74,0.00,,---,0.00,0.00,VWS V14.00,2013-06-02 05:31:00,
2013-06-02 00:36:00,80.1,71.1,29.56,SSE,159,1.0,2.0,74,0.00,,---,0.00,0.00,VWS V14.00,2013-06-02 05:36:00,
2013-06-02 00:40:00,79.9,71.3,29.55,SSE,160,1.0,6.0,75,0.00,,SKC,0.00,0.00,VWS V14.01,2013-06-02 05:40:00,
2013-06-02 00:41:00,79.9,71.3,29.55,SSE,159,0.0,6.0,75,0.00,,---,0.00,0.00,VWS V14.00,2013-06-02 05:41:00,
2013-06-02 00:46:00,79.8,71.2,29.56,SSE,160,0.0,2.0,75,0.00,,---,0.00,0.00,VWS V14.00,2013-06-02 05:46:00,
2013-06-02 00:50:00,79.7,71.1,29.56,SSE,160,0.0,2.0,75,0.00,,SKC,0.00,0.00,VWS V14.01,2013-06-02 05:50:00,
2013-06-02 00:51:00,79.7,71.1,29.56,SSE,159,0.0,2.0,75,0.00,,---,0.00,0.00,VWS V14.00,2013-06-02 05:51:00,
2013-06-02 00:56:00,79.6,71.4,29.55,SSE,159,2.0,5.0,76,0.00,,---,0.00,0.00,VWS V14.00,2013-06-02 05:56:00,
2013-06-02 01:00:00,79.3,71.1,29.55,SSE,159,2.0,5.0,76,0.00,,SKC,0.00,0.00,VWS V14.01,2013-06-02 06:00:00,
2013-06-02 01:01:00,79.4,71.2,29.55,SSE,159,2.0,5.0,76,0.00,,---,0.00,0.00,VWS V14.00,2013-06-02 06:01:00,
2013-06-02 01:06:00,79.2,71.0,29.57,SSE,159,0.0,5.0,76,0.00,,---,0.00,0.00,VWS V14.00,2013-06-02 06:06:00,
2013-06-02 01:10:00,79.1,70.9,29.57,SSE,159,2.0,5.0,76,0.00,,SKC,0.00,0.00,VWS V14.01,2013-06-02 06:10:00,
2013-06-02 01:11:00,79.1,70.9,29.57,SSE,160,0.0,5.0,76,0.00,,---,0.00,0.00,VWS V14.00,2013-06-02 06:11:00,
2013-06-02 01:16:00,79.0,71.2,29.56,SSE,159,2.0,4.0,77,0.00,,---,0.00,0.00,VWS V14.00,2013-06-02 06:16:00,
2013-06-02 01:20:00,78.8,71.0,29.57,SSE,159,0.0,5.0,77,0.00,,SKC,0.00,0.00,VWS V14.01,2013-06-02 06:20:00,
2013-06-02 01:21:00,78.8,71.0,29.57,SSE,159,2.0,5.0,77,0.00,,---,0.00,0.00,VWS V14.00,2013-06-02 06:21:00,
2013-06-02 01:26:00,78.7,70.9,29.57,SSE,159,2.0,5.0,77,0.00,,---,0.00,0.00,VWS V14.00,2013-06-02 06:26:00,
2013-06-02 01:30:00,78.5,70.7,29.57,SSE,160,4.0,6.0,77,0.00,,SKC,0.00,0.00,VWS V14.01,2013-06-02 06:30:00,
2013-06-02 01:31:00,78.5,70.7,29.57,SSE,159,2.0,6.0,77,0.00,,---,0.00,0.00,VWS V14.00,2013-06-02 06:31:00,
2013-06-02 01:36:00,78.3,70.5,29.57,SSE,159,4.0,7.0,77,0.00,,---,0.00,0.00,VWS V14.00,2013-06-02 06:36:00,
2013-06-02 01:40:00,78.0,70.6,29.56,SSE,160,4.0,7.0,78,0.00,,SKC,0.00,0.00,VWS V14.01,2013-06-02 06:40:00,
2013-06-02 01:41:00,78.0,70.6,29.56,SSE,159,2.0,7.0,78,0.00,,---,0.00,0.00,VWS V14.00,2013-06-02 06:41:00,
2013-06-02 01:46:00,77.7,70.3,29.57,SSE,159,7.0,12.0,78,0.00,,---,0.00,0.00,VWS V14.00,2013-06-02 06:46:00,
2013-06-02 01:50:00,77.3,69.9,29.57,SSE,159,5.0,12.0,78,0.00,,SKC,0.00,0.00,VWS V14.01,2013-06-02 06:50:00,
2013-06-02 01:51:00,77.4,70.0,29.57,SSE,159,6.0,12.0,78,0.00,,---,0.00,0.00,VWS V14.00,2013-06-02 06:51:00,
2013-06-02 01:56:00,77.1,70.1,29.58,SSE,159,10.0,14.0,79,0.00,,---,0.00,0.00,VWS V14.00,2013-06-02 06:56:00,
2013-06-02 02:00:00,76.6,69.6,29.57,SSE,159,7.0,15.0,79,0.00,,SKC,0.00,0.00,VWS V14.01,2013-06-02 07:00:00,
2013-06-02 02:01:00,76.7,69.7,29.57,SSE,159,7.0,15.0,79,0.00,,---,0.00,0.00,VWS V14.00,2013-06-02 07:01:00,
2013-06-02 02:06:00,76.3,69.3,29.58,SSE,159,6.0,12.0,79,0.00,,---,0.00,0.00,VWS V14.00,2013-06-02 07:06:00,
2013-06-02 02:10:00,76.1,69.5,29.58,SSE,159,5.0,12.0,80,0.00,,SKC,0.00,0.00,VWS V14.01,2013-06-02 07:10:00,
2013-06-02 02:11:00,76.1,69.5,29.58,SSE,159,6.0,12.0,80,0.00,,---,0.00,0.00,VWS V14.00,2013-06-02 07:11:00,
2013-06-02 02:16:00,76.0,69.4,29.58,SSE,159,6.0,10.0,80,0.00,,---,0.00,0.00,VWS V14.00,2013-06-02 07:16:00,
2013-06-02 02:20:00,75.9,69.3,29.58,SSE,159,8.0,10.0,80,0.00,,SKC,0.00,0.00,VWS V14.01,2013-06-02 07:20:00,
2013-06-02 02:21:00,75.9,69.3,29.58,SSE,159,5.0,10.0,80,0.00,,---,0.00,0.00,VWS V14.00,2013-06-02 07:21:00,
2013-06-02 02:26:00,75.8,69.2,29.59,SSE,159,2.0,8.0,80,0.00,,---,0.00,0.00,VWS V14.00,2013-06-02 07:26:00,
2013-06-02 02:30:00,75.8,69.2,29.60,SSE,160,9.0,9.0,80,0.00,,SKC,0.00,0.00,VWS V14.01,2013-06-02 07:30:00,
2013-06-02 02:31:00,75.8,69.2,29.60,SSE,159,5.0,8.0,80,0.00,,---,0.00,0.00,VWS V14.00,2013-06-02 07:31:00,
2013-06-02 02:36:00,75.7,69.1,29.60,SSE,159,6.0,9.0,80,0.00,,---,0.00,0.00,VWS V14.00,2013-06-02 07:36:00,
2013-06-02 02:40:00,75.6,69.0,29.60,SSE,159,5.0,10.0,80,0.00,,SKC,0.00,0.00,VWS V14.01,2013-06-02 07:40:00,
2013-06-02 02:41:00,75.6,69.0,29.60,SSE,159,5.0,10.0,80,0.00,,---,0.00,0.00,VWS V14.00,2013-06-02 07:41:00,
2013-06-02 02:46:00,75.6,69.0,29.61,SSE,159,7.0,10.0,80,0.00,,---,0.00,0.00,VWS V14.00,2013-06-02 07:46:00,
2013-06-02 02:50:00,75.5,68.9,29.61,SSE,159,5.0,10.0,80,0.00,,SKC,0.00,0.00,VWS V14.01,2013-06-02 07:50:00,
2013-06-02 02:51:00,75.5,68.9,29.61,SSE,159,6.0,10.0,80,0.00,,---,0.00,0.00,VWS V14.00,2013-06-02 07:51:00,
2013-06-02 02:56:00,75.5,68.9,29.61,SSE,159,1.0,7.0,80,0.00,,---,0.00,0.00,VWS V14.00,2013-06-02 07:56:00,
2013-06-02 03:00:00,75.4,68.4,29.62,SSE,159,6.0,11.0,79,0.00,,SKC,0.00,0.00,VWS V14.01,2013-06-02 08:00:00,
2013-06-02 03:01:00,75.4,68.4,29.62,SSE,159,6.0,11.0,79,0.00,,---,0.00,0.00,VWS V14.00,2013-06-02 08:01:00,
2013-06-02 03:06:00,75.3,68.3,29.62,SSE,159,5.0,10.0,79,0.00,,---,0.00,0.00,VWS V14.00,2013-06-02 08:06:00,
2013-06-02 03:10:00,75.2,67.9,29.61,SSE,160,4.0,10.0,78,0.00,,SKC,0.00,0.00,VWS V14.01,2013-06-02 08:10:00,
2013-06-02 03:11:00,75.2,67.9,29.61,SSE,159,4.0,10.0,78,0.00,,---,0.00,0.00,VWS V14.00,2013-06-02 08:11:00,
2013-06-02 03:16:00,75.1,67.8,29.61,SSE,159,9.0,11.0,78,0.00,,---,0.00,0.00,VWS V14.00,2013-06-02 08:16:00,
2013-06-02 03:20:00,74.9,67.6,29.61,SSE,159,5.0,12.0,78,0.00,,SKC,0.00,0.00,VWS V14.01,2013-06-02 08:20:00,
2013-06-02 03:21:00,74.9,67.6,29.61,SSE,159,5.0,12.0,78,0.00,,---,0.00,0.00,VWS V14.00,2013-06-02 08:21:00,
2013-06-02 03:26:00,74.8,67.5,29.61,SSE,159,4.0,9.0,78,0.00,,---,0.00,0.00,VWS V14.00,2013-06-02 08:26:00,
2013-06-02 03:30:00,74.7,67.4,29.61,SSE,159,9.0,10.0,78,0.00,,SKC,0.00,0.00,VWS V14.01,2013-06-02 08:30:00,
2013-06-02 03:31:00,74.7,67.4,29.61,SSE,159,6.0,10.0,78,0.00,,---,0.00,0.00,VWS V14.00,2013-06-02 08:31:00,
2013-06-02 03:36:00,74.5,67.6,29.61,SSE,159,7.0,11.0,79,0.00,,---,0.00,0.00,VWS V14.00,2013-06-02 08:36:00,
2013-06-02 03:40:00,74.3,67.4,29.61,SSE,159,6.0,12.0,79,0.00,,SKC,0.00,0.00,VWS V14.01,2013-06-02 08:40:00,
2013-06-02 03:41:00,74.3,67.4,29.61,SSE,159,8.0,12.0,79,0.00,,---,0.00,0.00,VWS V14.00,2013-06-02 08:41:00,
2013-06-02 03:46:00,74.1,67.2,29.62,SSE,160,7.0,9.0,79,0.00,,---,0.00,0.00,VWS V14.00,2013-06-02 08:46:00,
2013-06-02 03:50:00,73.8,66.9,29.61,SSE,159,4.0,9.0,79,0.00,,SKC,0.00,0.00,VWS V14.01,2013-06-02 08:50:00,
2013-06-02 03:51:00,73.9,67.0,29.61,SSE,159,0.0,9.0,79,0.00,,---,0.00,0.00,VWS V14.00,2013-06-02 08:51:00,
2013-06-02 03:56:00,73.7,66.4,29.61,SSE,159,4.0,5.0,78,0.00,,---,0.00,0.00,VWS V14.00,2013-06-02 08:56:00,
2013-06-02 04:00:00,73.5,65.9,29.62,SSE,159,5.0,7.0,77,0.00,,SKC,0.00,0.00,VWS V14.01,2013-06-02 09:00:00,
2013-06-02 04:01:00,73.5,65.9,29.62,SSE,159,2.0,7.0,77,0.00,,---,0.00,0.00,VWS V14.00,2013-06-02 09:01:00,
2013-06-02 04:06:00,73.2,65.6,29.62,SSE,159,5.0,5.0,77,0.00,,---,0.00,0.00,VWS V14.00,2013-06-02 09:06:00,
2013-06-02 04:10:00,72.9,64.9,29.63,SSE,159,5.0,8.0,76,0.00,,SKC,0.00,0.00,VWS V14.01,2013-06-02 09:10:00,
2013-06-02 04:11:00,73.0,65.0,29.63,SSE,159,4.0,8.0,76,0.00,,---,0.00,0.00,VWS V14.00,2013-06-02 09:11:00,
2013-06-02 04:16:00,72.7,64.7,29.63,SSE,159,7.0,9.0,76,0.00,,---,0.00,0.00,VWS V14.00,2013-06-02 09:16:00,
2013-06-02 04:20:00,72.5,64.1,29.64,SSE,159,7.0,11.0,75,0.00,,SKC,0.00,0.00,VWS V14.01,2013-06-02 09:20:00,
2013-06-02 04:21:00,72.5,64.1,29.64,SSE,159,6.0,9.0,75,0.00,,---,0.00,0.00,VWS V14.00,2013-06-02 09:21:00,
2013-06-02 04:26:00,72.2,63.8,29.64,SSE,160,7.0,11.0,75,0.00,,---,0.00,0.00,VWS V14.00,2013-06-02 09:26:00,
2013-06-02 04:30:00,72.0,63.7,29.64,SSE,159,7.0,13.0,75,0.00,,SKC,0.00,0.00,VWS V14.01,2013-06-02 09:30:00,
2013-06-02 04:31:00,72.0,63.7,29.64,SSE,159,9.0,13.0,75,0.00,,---,0.00,0.00,VWS V14.00,2013-06-02 09:31:00,
2013-06-02 04:36:00,71.9,63.9,29.64,SSE,159,4.0,9.0,76,0.00,,---,0.00,0.00,VWS V14.00,2013-06-02 09:36:00,
2013-06-02 04:40:00,71.7,63.4,29.64,SSE,159,6.0,11.0,75,0.00,,SKC,0.00,0.00,VWS V14.01,2013-06-02 09:40:00,
2013-06-02 04:41:00,71.7,63.4,29.64,SSE,159,6.0,11.0,75,0.00,,---,0.00,0.00,VWS V14.00,2013-06-02 09:41:00,
2013-06-02 04:46:00,71.6,62.9,29.64,SSE,159,4.0,9.0,74,0.00,,---,0.00,0.00,VWS V14.00,2013-06-02 09:46:00,
2013-06-02 04:50:00,71.5,62.8,29.64,SSE,159,9.0,9.0,74,0.00,,SKC,0.00,0.00,VWS V14.01,2013-06-02 09:50:00,
2013-06-02 04:51:00,71.5,62.8,29.64,SSE,159,6.0,9.0,74,0.00,,---,0.00,0.00,VWS V14.00,2013-06-02 09:51:00,
2013-06-02 04:56:00,71.4,62.3,29.64,SSE,159,11.0,12.0,73,0.00,,---,0.00,0.00,VWS V14.00,2013-06-02 09:56:00,
2013-06-02 05:00:00,71.3,62.2,29.64,SSE,159,7.0,12.0,73,0.00,,SKC,0.00,0.00,VWS V14.01,2013-06-02 10:00:00,
2013-06-02 05:01:00,71.3,62.2,29.64,SSE,159,6.0,12.0,73,0.00,,---,0.00,0.00,VWS V14.00,2013-06-02 10:01:00,
2013-06-02 05:06:00,71.2,62.1,29.64,SSE,159,8.0,10.0,73,0.00,,---,0.00,0.00,VWS V14.00,2013-06-02 10:06:00,
2013-06-02 05:10:00,71.1,62.0,29.64,SSE,159,7.0,10.0,73,0.00,,SKC,0.00,0.00,VWS V14.01,2013-06-02 10:10:00,
2013-06-02 05:11:00,71.1,62.0,29.64,SSE,159,10.0,10.0,73,0.00,,---,0.00,0.00,VWS V14.00,2013-06-02 10:11:00,
2013-06-02 05:16:00,71.0,61.9,29.64,SSE,159,6.0,11.0,73,0.00,,---,0.00,0.00,VWS V14.00,2013-06-02 10:16:00,
2013-06-02 05:20:00,70.9,62.2,29.64,SSE,159,5.0,11.0,74,0.00,,SKC,0.00,0.00,VWS V14.01,2013-06-02 10:20:00,
2013-06-02 05:21:00,70.9,62.2,29.64,SSE,159,6.0,11.0,74,0.00,,---,0.00,0.00,VWS V14.00,2013-06-02 10:21:00,
2013-06-02 05:26:00,70.8,62.1,29.64,SSE,159,5.0,9.0,74,0.00,,---,0.00,0.00,VWS V14.00,2013-06-02 10:26:00,
2013-06-02 05:30:00,70.7,62.0,29.64,SSE,159,6.0,10.0,74,0.00,,SKC,0.00,0.00,VWS V14.01,2013-06-02 10:30:00,
2013-06-02 05:31:00,70.7,62.0,29.64,SSE,159,8.0,10.0,74,0.00,,---,0.00,0.00,VWS V14.00,2013-06-02 10:31:00,
2013-06-02 05:36:00,70.6,61.9,29.65,SSE,160,6.0,8.0,74,0.00,,---,0.00,0.00,VWS V14.00,2013-06-02 10:36:00,
2013-06-02 05:40:00,70.5,62.2,29.65,SSE,159,6.0,10.0,75,0.00,,SKC,0.00,0.00,VWS V14.01,2013-06-02 10:40:00,
2013-06-02 05:41:00,70.5,62.2,29.65,SSE,159,6.0,10.0,75,0.00,,---,0.00,0.00,VWS V14.00,2013-06-02 10:41:00,
2013-06-02 05:46:00,70.5,62.2,29.66,SSE,159,7.0,8.0,75,0.00,,---,0.00,0.00,VWS V14.00,2013-06-02 10:46:00,
2013-06-02 05:50:00,70.6,62.3,29.66,SSE,159,5.0,11.0,75,0.00,,SKC,0.00,0.00,VWS V14.01,2013-06-02 10:50:00,
2013-06-02 05:51:00,70.6,62.3,29.66,SSE,159,7.0,11.0,75,0.00,,---,0.00,0.00,VWS V14.00,2013-06-02 10:51:00,
2013-06-02 05:56:00,70.6,62.3,29.66,SSE,159,4.0,9.0,75,0.00,,---,0.00,0.00,VWS V14.00,2013-06-02 10:56:00,
2013-06-02 06:00:00,70.6,62.3,29.66,SSE,159,9.0,10.0,75,0.00,,SKC,0.00,0.00,VWS V14.01,2013-06-02 11:00:00,
2013-06-02 06:01:00,70.6,62.3,29.66,SSE,159,9.0,9.0,75,0.00,,---,0.00,0.00,VWS V14.00,2013-06-02 11:01:00,
2013-06-02 06:06:00,70.6,62.3,29.66,SSE,159,9.0,9.0,75,0.00,,---,0.00,0.00,VWS V14.00,2013-06-02 11:06:00,
2013-06-02 06:10:00,70.5,62.2,29.66,SSE,159,6.0,10.0,75,0.00,,SKC,0.00,0.00,VWS V14.01,2013-06-02 11:10:00,
2013-06-02 06:11:00,70.5,62.2,29.66,SSE,159,4.0,10.0,75,0.00,,---,0.00,0.00,VWS V14.00,2013-06-02 11:11:00,
2013-06-02 06:16:00,70.4,62.1,29.65,SSE,159,4.0,10.0,75,0.00,,---,0.00,0.00,VWS V14.00,2013-06-02 11:16:00,
2013-06-02 06:20:00,70.4,62.1,29.65,SSE,159,7.0,11.0,75,0.00,,SKC,0.00,0.00,VWS V14.01,2013-06-02 11:20:00,
2013-06-02 06:21:00,70.4,62.1,29.65,SSE,159,7.0,11.0,75,0.00,,---,0.00,0.00,VWS V14.00,2013-06-02 11:21:00,
2013-06-02 06:26:00,70.4,62.1,29.66,SSE,159,5.0,7.0,75,0.00,,---,0.00,0.00,VWS V14.00,2013-06-02 11:26:00,
2013-06-02 06:30:00,70.4,62.1,29.66,SSE,159,5.0,10.0,75,0.00,,SKC,0.00,0.00,VWS V14.01,2013-06-02 11:30:00,
2013-06-02 06:31:00,70.4,62.1,29.66,SSE,159,4.0,10.0,75,0.00,,---,0.00,0.00,VWS V14.00,2013-06-02 11:31:00,
2013-06-02 06:36:00,70.4,62.1,29.67,SSE,159,5.0,9.0,75,0.00,,---,0.00,0.00,VWS V14.00,2013-06-02 11:36:00,
2013-06-02 06:40:00,70.4,62.1,29.67,SSE,159,6.0,9.0,75,0.00,,SKC,0.00,0.00,VWS V14.01,2013-06-02 11:40:00,
2013-06-02 06:41:00,70.4,62.1,29.67,SSE,159,2.0,9.0,75,0.00,,---,0.00,0.00,VWS V14.00,2013-06-02 11:41:00,
2013-06-02 06:46:00,70.4,62.1,29.67,SSE,159,6.0,8.0,75,0.00,,---,0.00,0.00,VWS V14.00,2013-06-02 11:46:00,
2013-06-02 06:50:00,70.4,62.1,29.67,SSE,160,8.0,12.0,75,0.00,,SKC,0.00,5.00,VWS V14.01,2013-06-02 11:50:00,
2013-06-02 06:51:00,70.4,62.1,29.67,SSE,159,7.0,12.0,75,0.00,,---,0.00,5.00,VWS V14.00,2013-06-02 11:51:00,
2013-06-02 06:56:00,70.4,62.1,29.66,SSE,159,2.0,10.0,75,0.00,,---,0.00,9.00,VWS V14.00,2013-06-02 11:56:00,
2013-06-02 07:00:00,70.4,62.1,29.67,SSE,159,6.0,10.0,75,0.00,,SKC,0.00,12.00,VWS V14.01,2013-06-02 12:00:00,
2013-06-02 07:01:00,70.4,62.1,29.67,SSE,159,4.0,10.0,75,0.00,,---,0.00,12.00,VWS V14.00,2013-06-02 12:01:00,
2013-06-02 07:06:00,70.4,62.5,29.67,SSE,159,2.0,7.0,76,0.00,,---,0.00,14.00,VWS V14.00,2013-06-02 12:06:00,
2013-06-02 07:10:00,70.4,62.5,29.67,SSE,159,4.0,7.0,76,0.00,,SKC,0.00,26.00,VWS V14.01,2013-06-02 12:10:00,
2013-06-02 07:11:00,70.4,62.5,29.67,SSE,159,5.0,7.0,76,0.00,,---,0.00,25.00,VWS V14.00,2013-06-02 12:11:00,
2013-06-02 07:16:00,70.4,62.5,29.67,SSE,159,4.0,7.0,76,0.00,,---,0.00,30.00,VWS V14.00,2013-06-02 12:16:00,
2013-06-02 07:20:00,70.3,62.4,29.67,SSE,159,0.0,7.0,76,0.00,,SKC,0.00,32.00,VWS V14.01,2013-06-02 12:20:00,
2013-06-02 07:21:00,70.3,62.4,29.67,SSE,159,1.0,7.0,76,0.00,,---,0.00,32.00,VWS V14.00,2013-06-02 12:21:00,
2013-06-02 07:26:00,70.2,62.3,29.67,SSE,159,5.0,9.0,76,0.00,,---,0.00,37.00,VWS V14.00,2013-06-02 12:26:00,
2013-06-02 07:30:00,70.1,62.2,29.67,SSE,159,5.0,9.0,76,0.00,,SKC,0.00,53.00,VWS V14.01,2013-06-02 12:30:00,
2013-06-02 07:31:00,70.1,62.2,29.67,SSE,159,6.0,9.0,76,0.00,,---,0.00,51.00,VWS V14.00,2013-06-02 12:31:00,
2013-06-02 07:36:00,70.1,62.2,29.67,SSE,159,5.0,10.0,76,0.00,,---,0.00,58.00,VWS V14.00,2013-06-02 12:36:00,
2013-06-02 07:40:00,70.1,62.2,29.67,SSE,159,5.0,10.0,76,0.00,,SKC,0.00,53.00,VWS V14.01,2013-06-02 12:40:00,
2013-06-02 07:41:00,70.1,62.2,29.67,SSE,159,4.0,10.0,76,0.00,,---,0.00,53.00,VWS V14.00,2013-06-02 12:41:00,
2013-06-02 07:46:00,70.1,62.2,29.67,SSE,159,6.0,6.0,76,0.00,,---,0.00,67.00,VWS V14.00,2013-06-02 12:46:00,
2013-06-02 07:50:00,70.1,62.2,29.68,SSE,159,4.0,7.0,76,0.00,,SKC,0.00,70.00,VWS V14.01,2013-06-02 12:50:00,
2013-06-02 07:51:00,70.1,62.2,29.68,SSE,159,4.0,7.0,76,0.00,,---,0.00,70.00,VWS V14.00,2013-06-02 12:51:00,
2013-06-02 07:56:00,70.1,62.2,29.68,SSE,159,7.0,8.0,76,0.00,,---,0.00,79.00,VWS V14.00,2013-06-02 12:56:00,
2013-06-02 08:00:00,70.1,62.6,29.69,SSE,159,5.0,8.0,77,0.00,,SKC,0.00,88.00,VWS V14.01,2013-06-02 13:00:00,
2013-06-02 08:01:00,70.1,62.6,29.69,SSE,160,2.0,8.0,77,0.00,,---,0.00,88.00,VWS V14.00,2013-06-02 13:01:00,
2013-06-02 08:06:00,70.0,61.7,29.69,SSE,159,2.0,7.0,75,0.00,,---,0.00,90.00,VWS V14.00,2013-06-02 13:06:00,
2013-06-02 08:10:00,70.0,61.7,29.70,SSE,159,2.0,7.0,75,0.00,,SKC,0.00,81.00,VWS V14.01,2013-06-02 13:10:00,
2013-06-02 08:11:00,70.0,61.7,29.70,SSE,159,2.0,7.0,75,0.00,,---,0.00,81.00,VWS V14.00,2013-06-02 13:11:00,
2013-06-02 08:16:00,70.0,61.7,29.70,SSE,159,0.0,7.0,75,0.00,,---,0.00,77.00,VWS V14.00,2013-06-02 13:16:00,
2013-06-02 08:20:00,70.0,61.7,29.71,SSE,159,4.0,7.0,75,0.00,,SKC,0.00,76.00,VWS V14.01,2013-06-02 13:20:00,
2013-06-02 08:21:00,70.0,61.7,29.71,SSE,159,6.0,7.0,75,0.00,,---,0.00,74.00,VWS V14.00,2013-06-02 13:21:00,
2013-06-02 08:26:00,70.0,61.7,29.71,SSE,159,2.0,8.0,75,0.00,,---,0.00,77.00,VWS V14.00,2013-06-02 13:26:00,
2013-06-02 08:30:00,69.9,61.6,29.72,SSE,160,4.0,8.0,75,0.00,,SKC,0.00,70.00,VWS V14.01,2013-06-02 13:30:00,
2013-06-02 08:31:00,69.9,61.6,29.72,SSE,159,2.0,8.0,75,0.00,,---,0.00,70.00,VWS V14.00,2013-06-02 13:31:00,
2013-06-02 08:36:00,69.9,61.6,29.72,SSE,159,6.0,6.0,75,0.00,,---,0.00,72.00,VWS V14.00,2013-06-02 13:36:00,
2013-06-02 08:40:00,69.9,62.0,29.72,SSE,159,6.0,7.0,76,0.00,,SKC,0.00,105.00,VWS V14.01,2013-06-02 13:40:00,
2013-06-02 08:41:00,69.9,61.6,29.72,SSE,159,6.0,7.0,75,0.00,,---,0.00,97.00,VWS V14.00,2013-06-02 13:41:00,
2013-06-02 08:46:00,70.0,62.1,29.73,SSE,159,2.0,7.0,76,0.00,,---,0.00,162.00,VWS V14.00,2013-06-02 13:46:00,
2013-06-02 08:50:00,70.2,62.3,29.73,SSE,159,6.0,7.0,76,0.00,,SKC,0.00,213.00,VWS V14.01,2013-06-02 13:50:00,
2013-06-02 08:51:00,70.1,62.2,29.73,SSE,159,5.0,7.0,76,0.00,,---,0.00,211.00,VWS V14.00,2013-06-02 13:51:00,
2013-06-02 08:56:00,70.3,62.0,29.73,SSE,159,7.0,7.0,75,0.00,,---,0.00,225.00,VWS V14.00,2013-06-02 13:56:00,
2013-06-02 09:00:00,70.5,62.2,29.74,SSE,155,9.0,10.0,75,0.00,,SKC,0.00,206.00,VWS V14.01,2013-06-02 14:00:00,
2013-06-02 09:01:00,70.5,62.2,29.73,SSE,155,8.0,10.0,75,0.00,,---,0.00,202.00,VWS V14.00,2013-06-02 14:01:00,
2013-06-02 09:06:00,70.6,61.9,29.74,SSE,155,7.0,10.0,74,0.00,,---,0.00,204.00,VWS V14.00,2013-06-02 14:06:00,
2013-06-02 09:10:00,70.6,61.9,29.74,SSE,155,4.0,10.0,74,0.00,,SKC,0.00,199.00,VWS V14.01,2013-06-02 14:10:00,
2013-06-02 09:11:00,70.6,61.9,29.74,SSE,155,8.0,10.0,74,0.00,,---,0.00,195.00,VWS V14.00,2013-06-02 14:11:00,
2013-06-02 09:16:00,70.7,62.0,29.75,SSE,155,8.0,10.0,74,0.00,,---,0.00,214.00,VWS V14.00,2013-06-02 14:16:00,
2013-06-02 09:20:00,70.7,62.0,29.75,SSE,155,7.0,14.0,74,0.00,,SKC,0.00,229.00,VWS V14.01,2013-06-02 14:20:00,
2013-06-02 09:21:00,70.6,61.9,29.75,SSE,155,7.0,14.0,74,0.00,,---,0.00,227.00,VWS V14.00,2013-06-02 14:21:00,
2013-06-02 09:26:00,70.7,61.6,29.75,SSE,155,6.0,11.0,73,0.00,,---,0.00,253.00,VWS V14.00,2013-06-02 14:26:00,
2013-06-02 09:30:00,70.9,61.8,29.76,SSE,155,4.0,12.0,73,0.00,,SKC,0.00,281.00,VWS V14.01,2013-06-02 14:30:00,
2013-06-02 09:31:00,70.9,61.8,29.76,SSE,155,4.0,12.0,73,0.00,,---,0.00,295.00,VWS V14.00,2013-06-02 14:31:00,
2013-06-02 09:36:00,71.1,61.6,29.76,SSE,155,6.0,10.0,72,0.00,,---,0.00,290.00,VWS V14.00,2013-06-02 14:36:00,
2013-06-02 09:40:00,71.2,61.3,29.76,SSE,150,10.0,12.0,71,0.00,,SKC,0.00,260.00,VWS V14.01,2013-06-02 14:40:00,
2013-06-02 09:41:00,71.2,61.3,29.76,SSE,150,9.0,12.0,71,0.00,,---,0.00,285.00,VWS V14.00,2013-06-02 14:41:00,
2013-06-02 09:46:00,71.1,61.2,29.76,SE,146,6.0,11.0,71,0.00,,---,0.00,243.00,VWS V14.00,2013-06-02 14:46:00,
2013-06-02 09:50:00,71.0,61.5,29.77,SE,145,7.0,11.0,72,0.00,,SKC,0.00,271.00,VWS V14.01,2013-06-02 14:50:00,
2013-06-02 09:51:00,71.0,61.5,29.77,SE,145,6.0,11.0,72,0.00,,---,0.00,260.00,VWS V14.00,2013-06-02 14:51:00,
2013-06-02 09:56:00,71.1,61.6,29.76,SE,145,2.0,9.0,72,0.00,,---,0.00,295.00,VWS V14.00,2013-06-02 14:56:00,
2013-06-02 10:00:00,71.4,62.3,29.76,SE,145,8.0,10.0,73,0.00,,SKC,0.00,350.00,VWS V14.01,2013-06-02 15:00:00,
2013-06-02 10:01:00,71.3,61.8,29.76,SE,145,4.0,9.0,72,0.00,,---,0.00,306.00,VWS V14.00,2013-06-02 15:01:00,
2013-06-02 10:05:00,71.6,62.1,29.76,SE,145,6.0,10.0,72,0.00,,---,0.00,573.00,VWS V14.00,2013-06-02 15:05:00,
2013-06-02 10:10:00,72.2,62.3,29.76,SE,142,7.0,13.0,71,0.00,,---,0.00,519.00,VWS V14.00,2013-06-02 15:10:00,
2013-06-02 10:15:00,72.5,61.8,29.77,SE,141,10.0,12.0,69,0.00,,---,0.00,492.00,VWS V14.00,2013-06-02 15:15:00,
2013-06-02 10:20:00,72.7,62.0,29.77,SE,140,6.0,12.0,69,0.00,,---,0.00,677.00,VWS V14.00,2013-06-02 15:20:00,
2013-06-02 10:25:00,73.2,61.6,29.76,SE,140,6.0,12.0,67,0.00,,---,0.00,589.00,VWS V14.00,2013-06-02 15:25:00,
2013-06-02 10:30:00,73.8,61.7,29.77,SE,140,6.0,12.0,66,0.00,,---,0.00,592.00,VWS V14.00,2013-06-02 15:30:00,
2013-06-02 10:35:00,74.0,60.6,29.76,SE,139,6.0,9.0,63,0.00,,---,0.00,566.00,VWS V14.00,2013-06-02 15:35:00,
2013-06-02 10:40:00,74.3,60.9,29.77,SE,139,10.0,10.0,63,0.00,,---,0.00,519.00,VWS V14.00,2013-06-02 15:40:00,
2013-06-02 10:45:00,74.5,60.6,29.77,SE,139,5.0,11.0,62,0.00,,---,0.00,650.00,VWS V14.00,2013-06-02 15:45:00,
2013-06-02 10:50:00,74.9,60.6,29.78,SE,137,7.0,12.0,61,0.00,,---,0.00,710.00,VWS V14.00,2013-06-02 15:50:00,
2013-06-02 10:55:00,75.3,60.9,29.77,SE,138,5.0,10.0,61,0.00,,---,0.00,580.00,VWS V14.00,2013-06-02 15:55:00,
2013-06-02 11:00:00,75.6,59.3,29.77,SE,138,9.0,10.0,57,0.00,,---,0.00,826.00,VWS V14.00,2013-06-02 16:00:00,
2013-06-02 11:05:00,76.2,58.4,29.77,SE,134,7.0,14.0,54,0.00,,---,0.00,772.00,VWS V14.00,2013-06-02 16:05:00,
2013-06-02 11:10:00,76.5,57.6,29.77,SE,129,11.0,14.0,52,0.00,,---,0.00,826.00,VWS V14.00,2013-06-02 16:10:00,
2013-06-02 11:15:00,76.9,58.0,29.77,SE,126,6.0,15.0,52,0.00,,---,0.00,835.00,VWS V14.00,2013-06-02 16:15:00,
2013-06-02 11:20:00,77.5,57.4,29.77,SE,129,8.0,17.0,50,0.00,,---,0.00,773.00,VWS V14.00,2013-06-02 16:20:00,
2013-06-02 11:25:00,77.5,55.7,29.77,ESE,115,7.0,18.0,47,0.00,,---,0.00,867.00,VWS V14.00,2013-06-02 16:25:00,
2013-06-02 11:30:00,77.5,56.3,29.77,ESE,116,12.0,18.0,48,0.00,,---,0.00,867.00,VWS V14.00,2013-06-02 16:30:00,
2013-06-02 11:35:00,77.6,55.8,29.77,ESE,109,7.0,14.0,47,0.00,,---,0.00,888.00,VWS V14.00,2013-06-02 16:35:00,
2013-06-02 11:40:00,77.9,56.7,29.77,ESE,109,8.0,14.0,48,0.00,,---,0.00,893.00,VWS V14.00,2013-06-02 16:40:00,
2013-06-02 11:45:00,78.4,56.5,29.77,ESE,109,8.0,13.0,47,0.00,,---,0.00,882.00,VWS V14.00,2013-06-02 16:45:00,
2013-06-02 11:50:00,78.6,56.7,29.77,ESE,108,7.0,13.0,47,0.00,,---,0.00,907.00,VWS V14.00,2013-06-02 16:50:00,
2013-06-02 11:55:00,78.9,56.4,29.76,ESE,108,8.0,12.0,46,0.00,,---,0.00,918.00,VWS V14.00,2013-06-02 16:55:00,
2013-06-02 12:00:00,79.2,56.0,29.76,ESE,118,11.0,15.0,45,0.00,,---,0.00,926.00,VWS V14.00,2013-06-02 17:00:00,
2013-06-02 12:05:00,79.3,54.9,29.76,ESE,114,9.0,13.0,43,0.00,,---,0.00,926.00,VWS V14.00,2013-06-02 17:05:00,
2013-06-02 12:10:00,79.3,55.5,29.76,ESE,113,6.0,13.0,44,0.00,,---,0.00,935.00,VWS V14.00,2013-06-02 17:10:00,
2013-06-02 12:15:00,80.0,56.2,29.76,ESE,114,2.0,11.0,44,0.00,,---,0.00,942.00,VWS V14.00,2013-06-02 17:15:00,
2013-06-02 12:20:00,80.5,57.2,29.76,ESE,114,8.0,13.0,45,0.00,,---,0.00,947.00,VWS V14.00,2013-06-02 17:20:00,
2013-06-02 12:25:00,80.8,55.6,29.75,ESE,117,8.0,15.0,42,0.00,,---,0.00,947.00,VWS V14.00,2013-06-02 17:25:00,
2013-06-02 12:30:00,80.9,56.3,29.76,ESE,117,8.0,15.0,43,0.00,,---,0.00,965.00,VWS V14.00,2013-06-02 17:30:00,
2013-06-02 12:35:00,81.2,56.0,29.75,ESE,117,5.0,13.0,42,0.00,,---,0.00,967.00,VWS V14.00,2013-06-02 17:35:00,
2013-06-02 12:40:00,81.4,56.1,29.75,ESE,121,5.0,16.0,42,0.00,,---,0.00,969.00,VWS V14.00,2013-06-02 17:40:00,
2013-06-02 12:45:00,81.7,56.4,29.75,ESE,123,5.0,15.0,42,0.00,,---,0.00,967.00,VWS V14.00,2013-06-02 17:45:00,
2013-06-02 12:50:00,81.7,56.4,29.75,ESE,123,8.0,15.0,42,0.00,,---,0.00,963.00,VWS V14.00,2013-06-02 17:50:00,
2013-06-02 12:55:00,81.8,57.1,29.75,ESE,122,9.0,14.0,43,0.00,,---,0.00,977.00,VWS V14.00,2013-06-02 17:55:00,
2013-06-02 13:00:00,82.1,55.4,29.75,ESE,122,11.0,14.0,40,0.00,,---,0.00,983.00,VWS V14.00,2013-06-02 18:00:00,
2013-06-02 13:05:00,82.4,56.4,29.75,ESE,123,4.0,13.0,41,0.00,,---,0.00,984.00,VWS V14.00,2013-06-02 18:05:00,
2013-06-02 13:10:00,82.5,56.5,29.75,ESE,123,6.0,13.0,41,0.00,,---,0.00,986.00,VWS V14.00,2013-06-02 18:10:00,
2013-06-02 13:15:00,82.8,58.0,29.75,ESE,123,9.0,11.0,43,0.00,,---,0.00,1002.00,VWS V14.00,2013-06-02 18:15:00,
2013-06-02 13:20:00,82.8,57.4,29.75,ESE,121,4.0,11.0,42,0.00,,---,0.00,998.00,VWS V14.00,2013-06-02 18:20:00,
2013-06-02 13:25:00,83.0,56.9,29.74,ESE,121,2.0,12.0,41,0.00,,---,0.00,1002.00,VWS V14.00,2013-06-02 18:25:00,
2013-06-02 13:30:00,83.2,57.1,29.74,ESE,121,11.0,12.0,41,0.00,,---,0.00,998.00,VWS V14.00,2013-06-02 18:30:00,
2013-06-02 13:35:00,82.9,56.8,29.74,ESE,121,4.0,8.0,41,0.00,,---,0.00,991.00,VWS V14.00,2013-06-02 18:35:00,
2013-06-02 13:40:00,83.3,57.2,29.74,ESE,121,6.0,13.0,41,0.00,,---,0.00,997.00,VWS V14.00,2013-06-02 18:40:00,
2013-06-02 13:45:00,83.6,56.8,29.74,ESE,120,8.0,12.0,40,0.00,,---,0.00,997.00,VWS V14.00,2013-06-02 18:45:00,
2013-06-02 13:50:00,83.8,56.2,29.74,ESE,120,2.0,14.0,39,0.00,,---,0.00,995.00,VWS V14.00,2013-06-02 18:50:00,
2013-06-02 13:55:00,84.0,56.4,29.73,ESE,121,4.0,13.0,39,0.00,,---,0.00,990.00,VWS V14.00,2013-06-02 18:55:00,
2013-06-02 14:00:00,84.1,55.0,29.73,ESE,121,1.0,13.0,37,0.00,,---,0.00,990.00,VWS V14.00,2013-06-02 19:00:00,
2013-06-02 14:05:00,84.3,56.0,29.73,ESE,121,4.0,12.0,38,0.00,,---,0.00,988.00,VWS V14.00,2013-06-02 19:05:00,
2013-06-02 14:10:00,84.7,55.6,29.72,ESE,121,4.0,12.0,37,0.00,,---,0.00,991.00,VWS V14.00,2013-06-02 19:10:00,
2013-06-02 14:15:00,84.9,55.0,29.72,ESE,121,0.0,11.0,36,0.00,,---,0.00,988.00,VWS V14.00,2013-06-02 19:15:00,
2013-06-02 14:20:00,84.9,56.5,29.72,ESE,121,9.0,12.0,38,0.00,,---,0.00,976.00,VWS V14.00,2013-06-02 19:20:00,
2013-06-02 14:25:00,85.1,55.2,29.71,ESE,122,2.0,11.0,36,0.00,,---,0.00,972.00,VWS V14.00,2013-06-02 19:25:00,
2013-06-02 14:30:00,85.6,54.8,29.71,ESE,122,6.0,11.0,35,0.00,,---,0.00,967.00,VWS V14.00,2013-06-02 19:30:00,
2013-06-02 14:35:00,86.2,53.8,29.71,ESE,123,14.0,14.0,33,0.00,,---,0.00,976.00,VWS V14.00,2013-06-02 19:35:00,
2013-06-02 14:40:00,86.3,54.7,29.71,ESE,123,7.0,14.0,34,0.00,,---,0.00,963.00,VWS V14.00,2013-06-02 19:40:00,
2013-06-02 14:45:00,86.2,55.4,29.71,ESE,120,4.0,12.0,35,0.00,,---,0.00,963.00,VWS V14.00,2013-06-02 19:45:00,
2013-06-02 14:50:00,86.1,54.5,29.70,ESE,120,7.0,12.0,34,0.00,,---,0.00,954.00,VWS V14.00,2013-06-02 19:50:00,
2013-06-02 14:55:00,86.1,55.3,29.71,ESE,120,2.0,9.0,35,0.00,,---,0.00,954.00,VWS V14.00,2013-06-02 19:55:00,
2013-06-02 15:00:00,86.3,55.5,29.70,ESE,119,11.0,11.0,35,0.00,,---,0.00,949.00,VWS V14.00,2013-06-02 20:00:00,
2013-06-02 15:05:00,86.3,56.2,29.70,ESE,119,6.0,9.0,36,0.00,,---,0.00,944.00,VWS V14.00,2013-06-02 20:05:00,
2013-06-02 15:10:00,86.5,54.8,29.69,ESE,121,11.0,14.0,34,0.00,,---,0.00,935.00,VWS V14.00,2013-06-02 20:10:00,
2013-06-02 15:15:00,86.6,54.9,29.69,ESE,121,0.0,8.0,34,0.00,,---,0.00,926.00,VWS V14.00,2013-06-02 20:15:00,
2013-06-02 15:20:00,86.9,55.2,29.69,ESE,121,5.0,8.0,34,0.00,,---,0.00,909.00,VWS V14.00,2013-06-02 20:20:00,
2013-06-02 15:25:00,86.9,55.2,29.68,ESE,121,6.0,9.0,34,0.00,,---,0.00,902.00,VWS V14.00,2013-06-02 20:25:00,
2013-06-02 15:30:00,86.8,54.3,29.68,ESE,121,5.0,9.0,33,0.00,,---,0.00,909.00,VWS V14.00,2013-06-02 20:30:00,
2013-06-02 15:35:00,86.9,56.0,29.68,ESE,121,0.0,4.0,35,0.00,,---,0.00,904.00,VWS V14.00,2013-06-02 20:35:00,
2013-06-02 15:40:00,87.8,56.0,29.68,ESE,121,4.0,12.0,34,0.00,,---,0.00,895.00,VWS V14.00,2013-06-02 20:40:00,
2013-06-02 15:45:00,87.7,55.1,29.68,ESE,120,6.0,8.0,33,0.00,,---,0.00,884.00,VWS V14.00,2013-06-02 20:45:00,
2013-06-02 15:50:00,87.5,55.7,29.68,ESE,121,12.0,12.0,34,0.00,,---,0.00,872.00,VWS V14.00,2013-06-02 20:50:00,
2013-06-02 15:55:00,87.4,55.6,29.67,ESE,120,5.0,11.0,34,0.00,,---,0.00,861.00,VWS V14.00,2013-06-02 20:55:00,
2013-06-02 16:00:00,87.4,57.2,29.67,ESE,120,6.0,11.0,36,0.00,,---,0.00,854.00,VWS V14.00,2013-06-02 21:00:00,
2013-06-02 16:05:00,87.4,57.2,29.67,ESE,120,4.0,9.0,36,0.00,,---,0.00,842.00,VWS V14.00,2013-06-02 21:05:00,
2013-06-02 16:10:00,87.6,56.6,29.66,ESE,120,4.0,9.0,35,0.00,,---,0.00,837.00,VWS V14.00,2013-06-02 21:10:00,
2013-06-02 16:15:00,87.5,57.3,29.66,ESE,120,0.0,5.0,36,0.00,,---,0.00,821.00,VWS V14.00,2013-06-02 21:15:00,
2013-06-02 16:20:00,87.7,57.5,29.66,ESE,120,2.0,6.0,36,0.00,,---,0.00,807.00,VWS V14.00,2013-06-02 21:20:00,
2013-06-02 16:25:00,87.9,57.6,29.65,ESE,120,5.0,7.0,36,0.00,,---,0.00,796.00,VWS V14.00,2013-06-02 21:25:00,
2013-06-02 16:30:00,88.0,57.7,29.65,SE,125,6.0,14.0,36,0.00,,---,0.00,780.00,VWS V14.00,2013-06-02 21:30:00,
2013-06-02 16:35:00,87.9,56.9,29.64,SE,125,2.0,11.0,35,0.00,,---,0.00,770.00,VWS V14.00,2013-06-02 21:35:00,
2013-06-02 16:40:00,88.2,56.3,29.64,SE,125,0.0,11.0,34,0.00,,---,0.00,758.00,VWS V14.00,2013-06-02 21:40:00,
2013-06-02 16:45:00,88.6,57.5,29.64,SE,125,1.0,7.0,35,0.00,,---,0.00,745.00,VWS V14.00,2013-06-02 21:45:00,
2013-06-02 16:50:00,88.9,57.7,29.64,SE,125,5.0,8.0,35,0.00,,---,0.00,726.00,VWS V14.00,2013-06-02 21:50:00,
2013-06-02 16:55:00,88.6,57.5,29.64,SE,125,14.0,14.0,35,0.00,,---,0.00,710.00,VWS V14.00,2013-06-02 21:55:00,
2013-06-02 17:00:00,88.3,57.2,29.63,SE,125,5.0,14.0,35,0.00,,---,0.00,696.00,VWS V14.00,2013-06-02 22:00:00,
2013-06-02 17:05:00,88.2,57.1,29.63,SE,125,0.0,8.0,35,0.00,,---,0.00,684.00,VWS V14.00,2013-06-02 22:05:00,
2013-06-02 17:10:00,88.3,57.2,29.63,SE,125,1.0,11.0,35,0.00,,---,0.00,677.00,VWS V14.00,2013-06-02 22:10:00,
2013-06-02 17:15:00,88.6,57.5,29.62,SE,125,4.0,9.0,35,0.00,,---,0.00,656.00,VWS V14.00,2013-06-02 22:15:00,
2013-06-02 17:20:00,88.4,57.3,29.62,SE,125,6.0,11.0,35,0.00,,---,0.00,638.00,VWS V14.00,2013-06-02 22:20:00,
2013-06-02 17:25:00,88.3,58.0,29.62,SE,125,6.0,8.0,36,0.00,,---,0.00,622.00,VWS V14.00,2013-06-02 22:25:00,
2013-06-02 17:30:00,88.1,57.8,29.62,SE,125,2.0,8.0,36,0.00,,---,0.00,605.00,VWS V14.00,2013-06-02 22:30:00,
2013-06-02 17:35:00,88.2,57.9,29.62,SE,125,7.0,11.0,36,0.00,,---,0.00,592.00,VWS V14.00,2013-06-02 22:35:00,
2013-06-02 17:40:00,88.2,57.9,29.62,SE,125,9.0,11.0,36,0.00,,---,0.00,573.00,VWS V14.00,2013-06-02 22:40:00,
2013-06-02 17:45:00,88.2,56.3,29.61,SE,125,5.0,9.0,34,0.00,,---,0.00,559.00,VWS V14.00,2013-06-02 22:45:00,
2013-06-02 17:50:00,87.9,56.9,29.61,SE,125,7.0,9.0,35,0.00,,---,0.00,545.00,VWS V14.00,2013-06-02 22:50:00,
2013-06-02 17:55:00,87.9,56.9,29.62,SE,126,5.0,12.0,35,0.00,,---,0.00,524.00,VWS V14.00,2013-06-02 22:55:00,
2013-06-02 18:00:00,87.9,57.6,29.61,SE,126,4.0,12.0,36,0.00,,---,0.00,508.00,VWS V14.00,2013-06-02 23:00:00,
2013-06-02 18:05:00,88.0,57.7,29.61,SE,126,7.0,9.0,36,0.00,,---,0.00,490.00,VWS V14.00,2013-06-02 23:05:00,
2013-06-02 18:10:00,87.8,58.3,29.61,SE,126,6.0,9.0,37,0.00,,---,0.00,471.00,VWS V14.00,2013-06-02 23:10:00,
2013-06-02 18:15:00,87.7,58.2,29.61,SE,126,4.0,9.0,37,0.00,,---,0.00,459.00,VWS V14.00,2013-06-02 23:15:00,
2013-06-02 18:20:00,87.4,58.0,29.61,SE,126,0.0,9.0,37,0.00,,---,0.00,436.00,VWS V14.00,2013-06-02 23:20:00,
2013-06-02 18:25:00,87.2,58.5,29.61,SE,125,4.0,11.0,38,0.00,,---,0.00,422.00,VWS V14.00,2013-06-02 23:25:00,
2013-06-02 18:30:00,87.1,58.4,29.60,SE,125,4.0,11.0,38,0.00,,---,0.00,399.00,VWS V14.00,2013-06-02 23:30:00,
2013-06-02 18:35:00,87.1,57.7,29.60,SE,125,1.0,5.0,37,0.00,,---,0.00,383.00,VWS V14.00,2013-06-02 23:35:00,
2013-06-02 18:40:00,87.0,58.3,29.60,SE,125,5.0,8.0,38,0.00,,---,0.00,353.00,VWS V14.00,2013-06-02 23:40:00,
2013-06-02 18:45:00,86.8,58.2,29.60,SE,125,4.0,5.0,38,0.00,,---,0.00,339.00,VWS V14.00,2013-06-02 23:45:00,
2013-06-02 18:50:00,86.9,58.3,29.60,SE,125,5.0,5.0,38,0.00,,---,0.00,264.00,VWS V14.00,2013-06-02 23:50:00,
2013-06-02 18:55:00,86.8,57.4,29.60,SE,125,4.0,6.0,37,0.00,,---,0.00,241.00,VWS V14.00,2013-06-02 23:55:00,
2013-06-02 19:00:00,86.6,58.0,29.60,SE,125,4.0,6.0,38,0.00,,---,0.00,276.00,VWS V14.00,2013-06-03 00:00:00,
2013-06-02 19:05:00,86.3,58.5,29.60,SE,125,4.0,6.0,39,0.00,,---,0.00,281.00,VWS V14.00,2013-06-03 00:05:00,
2013-06-02 19:10:00,86.1,58.3,29.60,SE,125,5.0,8.0,39,0.00,,---,0.00,267.00,VWS V14.00,2013-06-03 00:10:00,
2013-06-02 19:15:00,85.8,58.0,29.60,SE,125,5.0,6.0,39,0.00,,---,0.00,244.00,VWS V14.00,2013-06-03 00:15:00,
2013-06-02 19:20:00,85.6,57.8,29.59,SE,125,1.0,9.0,39,0.00,,---,0.00,234.00,VWS V14.00,2013-06-03 00:20:00,
2013-06-02 19:25:00,85.4,57.7,29.60,SE,125,1.0,7.0,39,0.00,,---,0.00,211.00,VWS V14.00,2013-06-03 00:25:00,
2013-06-02 19:30:00,85.3,59.0,29.60,SE,124,0.0,9.0,41,0.00,,---,0.00,190.00,VWS V14.00,2013-06-03 00:30:00,
2013-06-02 19:35:00,85.1,58.8,29.60,SE,124,1.0,7.0,41,0.00,,---,0.00,167.00,VWS V14.00,2013-06-03 00:35:00,
2013-06-02 19:40:00,84.8,58.5,29.60,SE,124,5.0,7.0,41,0.00,,---,0.00,142.00,VWS V14.00,2013-06-03 00:40:00,
2013-06-02 19:45:00,84.5,58.9,29.60,SE,124,4.0,7.0,42,0.00,,---,0.00,121.00,VWS V14.00,2013-06-03 00:45:00,
2013-06-02 19:50:00,84.3,58.7,29.60,SE,124,2.0,8.0,42,0.00,,---,0.00,102.00,VWS V14.00,2013-06-03 00:50:00,
2013-06-02 19:55:00,84.1,58.5,29.60,SE,124,1.0,6.0,42,0.00,,---,0.00,86.00,VWS V14.00,2013-06-03 00:55:00,
2013-06-02 20:00:00,83.8,58.9,29.60,SE,124,2.0,7.0,43,0.00,,---,0.00,70.00,VWS V14.00,2013-06-03 01:00:00,
2013-06-02 20:05:00,83.6,58.8,29.60,SE,124,4.0,5.0,43,0.00,,---,0.00,56.00,VWS V14.00,2013-06-03 01:05:00,
2013-06-02 20:10:00,83.3,58.5,29.59,SE,124,6.0,6.0,43,0.00,,---,0.00,42.00,VWS V14.00,2013-06-03 01:10:00,
2013-06-02 20:15:00,82.9,58.8,29.60,SE,124,0.0,6.0,44,0.00,,---,0.00,32.00,VWS V14.00,2013-06-03 01:15:00,
2013-06-02 20:20:00,82.5,59.0,29.60,SE,124,0.0,7.0,45,0.00,,---,0.00,18.00,VWS V14.00,2013-06-03 01:20:00,
2013-06-02 20:25:00,82.1,58.7,29.60,SE,124,1.0,5.0,45,0.00,,---,0.00,12.00,VWS V14.00,2013-06-03 01:25:00,
2013-06-02 20:30:00,81.6,58.8,29.60,SE,124,2.0,5.0,46,0.00,,---,0.00,9.00,VWS V14.00,2013-06-03 01:30:00,
2013-06-02 20:35:00,81.2,59.1,29.60,SE,124,0.0,4.0,47,0.00,,---,0.00,0.00,VWS V14.00,2013-06-03 01:35:00,
2013-06-02 20:40:00,80.7,58.6,29.60,SE,125,4.0,5.0,47,0.00,,---,0.00,0.00,VWS V14.00,2013-06-03 01:40:00,
2013-06-02 20:45:00,80.3,58.8,29.60,SE,124,2.0,4.0,48,0.00,,---,0.00,0.00,VWS V14.00,2013-06-03 01:45:00,
2013-06-02 20:50:00,79.8,59.0,29.60,SE,124,1.0,5.0,49,0.00,,---,0.00,0.00,VWS V14.00,2013-06-03 01:50:00,
2013-06-02 20:55:00,79.4,59.2,29.60,SE,124,2.0,4.0,50,0.00,,---,0.00,0.00,VWS V14.00,2013-06-03 01:55:00,
2013-06-02 21:00:00,79.1,59.4,29.60,SE,124,0.0,5.0,51,0.00,,---,0.00,0.00,VWS V14.00,2013-06-03 02:00:00,
2013-06-02 21:05:00,78.7,59.1,29.60,SE,124,1.0,4.0,51,0.00,,---,0.00,0.00,VWS V14.00,2013-06-03 02:05:00,
2013-06-02 21:10:00,78.3,59.2,29.60,SE,124,4.0,7.0,52,0.00,,---,0.00,0.00,VWS V14.00,2013-06-03 02:10:00,
2013-06-02 21:15:00,78.1,59.6,29.60,SE,124,0.0,4.0,53,0.00,,---,0.00,0.00,VWS V14.00,2013-06-03 02:15:00,
2013-06-02 21:20:00,77.8,59.8,29.60,SE,124,0.0,4.0,54,0.00,,---,0.00,0.00,VWS V14.00,2013-06-03 02:20:00,
2013-06-02 21:25:00,77.5,59.6,29.60,SE,124,2.0,5.0,54,0.00,,---,0.00,0.00,VWS V14.00,2013-06-03 02:25:00,
2013-06-02 21:30:00,77.3,59.9,29.61,SE,124,2.0,6.0,55,0.00,,---,0.00,0.00,VWS V14.00,2013-06-03 02:30:00,
2013-06-02 21:35:00,77.1,59.7,29.60,SE,125,6.0,7.0,55,0.00,,---,0.00,0.00,VWS V14.00,2013-06-03 02:35:00,
2013-06-02 21:40:00,77.0,59.6,29.60,SE,124,2.0,7.0,55,0.00,,---,0.00,0.00,VWS V14.00,2013-06-03 02:40:00,
2013-06-02 21:45:00,76.8,59.9,29.60,SE,124,0.0,6.0,56,0.00,,---,0.00,0.00,VWS V14.00,2013-06-03 02:45:00,
2013-06-02 21:50:00,76.6,59.8,29.60,SE,124,1.0,6.0,56,0.00,,---,0.00,0.00,VWS V14.00,2013-06-03 02:50:00,
2013-06-02 21:55:00,76.4,60.1,29.60,SE,124,0.0,2.0,57,0.00,,---,0.00,0.00,VWS V14.00,2013-06-03 02:55:00,
2013-06-02 22:00:00,76.0,59.7,29.60,SE,124,1.0,6.0,57,0.00,,---,0.00,0.00,VWS V14.00,2013-06-03 03:00:00,
2013-06-02 22:05:00,75.8,60.0,29.60,SE,124,4.0,4.0,58,0.00,,---,0.00,0.00,VWS V14.00,2013-06-03 03:05:00,
2013-06-02 22:10:00,75.4,59.6,29.61,SE,124,2.0,6.0,58,0.00,,---,0.00,0.00,VWS V14.00,2013-06-03 03:10:00,
2013-06-02 22:15:00,75.1,59.8,29.61,SE,124,0.0,6.0,59,0.00,,---,0.00,0.00,VWS V14.00,2013-06-03 03:15:00,
2013-06-02 22:20:00,74.8,59.5,29.61,SE,124,2.0,6.0,59,0.00,,---,0.00,0.00,VWS V14.00,2013-06-03 03:20:00,
2013-06-02 22:25:00,74.6,59.8,29.62,SE,124,1.0,5.0,60,0.00,,---,0.00,0.00,VWS V14.00,2013-06-03 03:25:00,
2013-06-02 22:30:00,74.4,59.6,29.62,SE,124,1.0,5.0,60,0.00,,---,0.00,0.00,VWS V14.00,2013-06-03 03:30:00,
2013-06-02 22:35:00,74.2,59.9,29.61,SE,124,1.0,1.0,61,0.00,,---,0.00,0.00,VWS V14.00,2013-06-03 03:35:00,
2013-06-02 22:40:00,74.1,60.3,29.62,SE,124,0.0,5.0,62,0.00,,---,0.00,0.00,VWS V14.00,2013-06-03 03:40:00,
2013-06-02 22:45:00,74.0,60.2,29.63,SE,124,1.0,4.0,62,0.00,,---,0.00,0.00,VWS V14.00,2013-06-03 03:45:00,
2013-06-02 22:50:00,73.9,60.1,29.63,SE,124,0.0,4.0,62,0.00,,---,0.00,0.00,VWS V14.00,2013-06-03 03:50:00,
2013-06-02 22:55:00,73.8,60.0,29.64,SE,124,0.0,1.0,62,0.00,,---,0.00,0.00,VWS V14.00,2013-06-03 03:55:00,
2013-06-02 23:00:00,73.5,60.2,29.65,SE,124,1.0,2.0,63,0.00,,---,0.00,0.00,VWS V14.00,2013-06-03 04:00:00,
2013-06-02 23:01:00,73.5,60.2,29.65,SE,124,2.0,4.0,63,0.00,,---,0.00,0.00,VWS V14.00,2013-06-03 04:01:00,
2013-06-02 23:07:00,73.3,60.0,29.65,SE,124,1.0,4.0,63,0.00,,---,0.00,0.00,VWS V14.00,2013-06-03 04:07:00,
2013-06-02 23:10:00,73.0,60.1,29.65,SE,124,0.0,4.0,64,0.00,,SKC,0.00,0.00,VWS V14.01,2013-06-03 04:10:00,
2013-06-02 23:12:00,73.0,60.1,29.65,SE,124,0.0,0.0,64,0.00,,---,0.00,0.00,VWS V14.00,2013-06-03 04:12:00,
2013-06-02 23:17:00,72.8,59.9,29.65,SE,124,1.0,2.0,64,0.00,,---,0.00,0.00,VWS V14.00,2013-06-03 04:17:00,
2013-06-02 23:20:00,72.6,60.2,29.66,SE,124,0.0,2.0,65,0.00,,SKC,0.00,0.00,VWS V14.01,2013-06-03 04:20:00,
2013-06-02 23:22:00,72.5,60.1,29.66,SE,124,0.0,0.0,65,0.00,,---,0.00,0.00,VWS V14.00,2013-06-03 04:22:00,
2013-06-02 23:27:00,72.2,59.8,29.66,SE,124,0.0,1.0,65,0.00,,---,0.00,0.00,VWS V14.00,2013-06-03 04:27:00,
2013-06-02 23:30:00,72.0,60.0,29.66,SE,124,2.0,4.0,66,0.00,,SKC,0.00,0.00,VWS V14.01,2013-06-03 04:30:00,
2013-06-02 23:32:00,72.0,60.0,29.66,SE,124,1.0,1.0,66,0.00,,---,0.00,0.00,VWS V14.00,2013-06-03 04:32:00,
2013-06-02 23:37:00,71.8,59.8,29.67,SE,124,4.0,5.0,66,0.00,,---,0.00,0.00,VWS V14.00,2013-06-03 04:37:00,
2013-06-02 23:40:00,71.6,59.7,29.68,SE,124,1.0,5.0,66,0.00,,SKC,0.00,0.00,VWS V14.01,2013-06-03 04:40:00,
2013-06-02 23:42:00,71.6,59.7,29.68,SE,124,2.0,2.0,66,0.00,,---,0.00,0.00,VWS V14.00,2013-06-03 04:42:00,
2013-06-02 23:46:00,71.3,59.8,29.67,SE,124,4.0,4.0,67,0.00,,---,0.00,0.00,VWS V14.00,2013-06-03 04:46:00,
2013-06-02 23:50:00,71.0,59.5,29.67,SE,124,1.0,4.0,67,0.00,,SKC,0.00,0.00,VWS V14.01,2013-06-03 04:50:00,
2013-06-02 23:52:00,71.0,59.5,29.67,SE,124,1.0,4.0,67,0.00,,---,0.00,0.00,VWS V14.00,2013-06-03 04:52:00,
2013-06-02 23:56:00,70.9,59.4,29.67,SE,124,2.0,4.0,67,0.00,,---,0.00,0.00,VWS V14.00,2013-06-03 04:56:00,